EW8150 Weather Reports


Display with metric or nautical units.
time (UTC)temp
F
wind
direction
speed
MPH
gust
MPH
rain 1hr
in
rain 24hr
in
rain mn
in
humidity
%
barometer
mb
20260906110015 58 59 0.0 0.0 0.00 0.15 0.01 100 1020.1
20260906104539 58 23 0.0 0.0 0.00 0.15 0.01 100 1019.8
20260906103053 58 41 0.0 0.0 0.00 0.15 0.01 100 1019.8
20260906101518 58 46 0.0 0.0 0.00 0.15 0.01 100 1019.7
20260906100027 59 26 0.0 0.0 0.00 0.20 0.01 100 1019.7
20260906094557 59 36 0.0 0.0 0.00 0.20 0.01 100 1019.5
20260906093009 59 36 0.0 0.0 0.00 0.20 0.01 100 1019.6
20260906091535 59 36 0.0 0.0 0.00 0.20 0.01 100 1019.6
20260906090047 60 36 0.0 0.0 0.00 0.28 0.01 100 1019.5
20260906084521 60 36 0.0 0.0 0.01 0.28 0.01 100 1019.3
20260906083027 60 36 0.0 0.0 0.01 0.28 0.01 100 1019.1
20260906081559 61 36 0.0 0.0 0.01 0.28 0.01 100 1019.1
20260906080007 61 36 0.0 0.0 0.01 0.35 0.01 100 1018.9
20260906074536 62 36 0.0 0.0 0.00 0.34 0.00 100 1018.9
20260906073039 62 36 0.0 0.0 0.00 0.34 0.00 100 1018.9
20260906071504 63 36 0.0 0.0 0.00 0.34 0.00 100 1018.8
20260906070015 63 51 0.0 0.0 0.00 0.47 0.00 99 1018.9
20260906064542 64 51 0.0 0.0 0.00 0.47 0.00 99 1018.9
20260906063051 64 51 0.0 0.0 0.00 0.47 0.00 98 1019.0
20260906061513 65 51 0.0 0.0 0.00 0.47 0.00 98 1019.0
20260906060022 65 59 0.0 0.0 0.00 0.56 0.00 97 1018.7
20260906054551 66 29 0.0 4.0 0.00 0.56 0.00 97 1018.5
20260906053053 66 34 0.0 3.0 0.00 0.56 0.00 97 1018.7
20260906051515 67 34 0.0 1.0 0.00 0.56 0.00 96 1018.5
20260906050053 68 42 0.0 1.0 0.00 0.67 0.00 95 1018.4
20260906044557 68 53 0.0 4.0 0.00 0.67 0.00 94 1018.2
20260906043009 68 35 0.0 3.0 0.00 0.67 0.00 94 1018.0
20260906041533 68 23 1.0 4.0 0.00 0.67 0.00 94 1017.8
20260906040044 68 80 1.0 4.0 0.00 1.68 0.67 97 1018.0
20260906034508 68 19 2.0 4.0 0.00 1.68 0.67 99 1017.7
20260906033024 67 30 1.0 3.0 0.00 1.68 0.67 100 1017.8
20260906031554 67 41 1.0 4.0 0.00 1.68 0.67 100 1017.9
20260906030005 67 40 0.0 6.0 0.00 1.68 0.67 100 1017.7
20260906024539 68 25 0.0 2.0 0.00 1.68 0.67 100 1017.8
20260906023053 68 34 0.0 0.0 0.00 1.68 0.67 100 1017.4
20260906021522 68 34 0.0 0.0 0.00 1.68 0.67 100 1017.2
20260906020035 69 34 0.0 0.0 0.00 1.68 0.67 100 1017.2
20260906014506 69 34 0.0 0.0 0.00 1.68 0.67 100 1017.1
20260906013015 70 33 0.0 0.0 0.00 1.68 0.67 100 1017.0
20260906011543 70 34 0.0 0.0 0.00 1.68 0.67 100 1016.9
20260906010052 70 34 0.0 0.0 0.00 1.68 0.67 100 1016.8
20260906004522 71 33 0.0 0.0 0.01 1.68 0.67 100 1016.6
20260906003038 71 34 0.0 0.0 0.01 1.68 0.67 100 1016.5
20260906001509 71 34 0.0 0.0 0.01 1.68 0.67 99 1016.5
20260906000028 72 33 0.0 0.0 0.01 1.68 0.67 99 1016.4
20260905234611 72 34 0.0 0.0 0.00 1.67 0.66 99 1016.5
20260905233015 73 34 0.0 1.0 0.00 1.67 0.66 98 1016.4
20260905231543 73 42 0.0 3.0 0.00 1.67 0.66 97 1016.5
20260905230054 73 41 0.0 4.0 0.00 1.67 0.66 97 1016.4
20260905224514 72 75 0.0 9.0 0.00 1.67 0.66 98 1016.1
20260905223035 73 72 0.0 5.0 0.00 1.67 0.66 97 1015.9
20260905221556 73 52 0.0 3.0 0.00 1.67 0.66 97 1015.9
20260905220012 73 76 1.0 6.0 0.00 1.67 0.66 97 1015.9
20260905214540 73 34 2.0 5.0 0.01 1.67 0.66 98 1015.6
20260905213052 72 26 0.0 5.0 0.01 1.67 0.66 98 1015.5
20260905211519 72 32 0.0 5.0 0.01 1.67 0.66 99 1015.6
20260905210043 72 59 1.0 4.0 0.01 1.67 0.66 99 1015.6
20260905204510 72 22 1.0 7.0 0.00 1.66 0.65 99 1015.7
20260905203015 73 30 0.0 4.0 0.00 1.66 0.65 99 1015.8
20260905201544 73 44 1.0 7.0 0.00 1.66 0.65 99 1015.8
20260905200050 73 85 1.0 5.0 0.00 1.67 0.65 99 1015.8
20260905194507 73 52 0.0 9.0 0.01 1.67 0.65 98 1015.8
20260905193058 74 92 0.0 4.0 0.01 1.67 0.65 98 1015.7
20260905191518 75 61 1.0 5.0 0.01 1.67 0.65 98 1015.7
20260905190038 75 340 2.0 8.0 0.01 1.67 0.65 98 1015.7
20260905184508 75 18 1.0 8.0 0.00 1.66 0.64 99 1015.8
20260905183014 75 57 0.0 4.0 0.00 1.66 0.64 100 1015.6
20260905181540 74 355 0.0 5.0 0.01 1.66 0.64 100 1015.6
20260905180052 74 22 0.0 6.0 0.01 1.66 0.64 100 1015.6
20260905174527 73 52 1.0 5.0 0.01 1.66 0.64 100 1015.8
20260905173026 73 21 1.0 5.0 0.01 1.66 0.64 100 1015.8
20260905171552 73 94 0.0 6.0 0.00 1.65 0.63 100 1016.0
20260905170012 72 19 1.0 5.0 0.00 1.68 0.63 100 1016.0
20260905164538 72 17 1.0 5.0 0.01 1.68 0.63 100 1016.1
20260905163053 72 64 1.0 5.0 0.01 1.68 0.63 100 1015.9
20260905161511 71 38 0.0 2.0 0.01 1.68 0.63 100 1015.9
20260905160027 71 36 2.0 6.0 0.01 1.99 0.63 100 1016.0
20260905154541 71 48 0.0 4.0 0.00 1.98 0.62 100 1016.0
20260905153035 71 25 0.0 2.0 0.01 1.98 0.62 100 1016.0
20260905151556 71 167 0.0 2.0 0.01 1.98 0.62 100 1015.7
20260905150016 70 21 0.0 1.0 0.01 1.98 0.62 100 1015.8
20260905144544 70 53 0.0 3.0 0.02 1.98 0.62 100 1015.8
20260905143050 70 84 0.0 2.0 0.01 1.97 0.61 100 1015.7
20260905141541 70 45 0.0 2.0 0.01 1.97 0.61 100 1015.7
20260905140022 70 36 0.0 4.0 0.01 2.33 0.61 100 1015.7
20260905134605 70 72 0.0 3.0 0.01 2.31 0.60 100 1015.3
20260905133010 69 32 0.0 3.0 0.01 2.31 0.60 100 1015.5
20260905131554 69 5 0.0 3.0 0.01 2.31 0.60 100 1015.1
20260905130052 69 28 1.0 3.0 0.02 2.33 0.60 100 1015.1
20260905124600 68 28 0.0 2.0 0.01 2.31 0.59 100 1015.1
20260905123056 68 55 1.0 3.0 0.02 2.31 0.59 100 1015.0
20260905121504 68 55 1.0 6.0 0.02 2.31 0.59 100 1014.8
20260905120015 68 32 1.0 5.0 0.02 2.34 0.57 100 1014.7
20260905114623 67 61 2.0 4.0 0.02 2.34 0.57 100 1014.6
20260905113016 67 28 0.0 4.0 0.02 2.33 0.56 100 1014.5
20260905111550 67 76 1.0 5.0 0.03 2.33 0.56 100 1014.1